Location: Ariel
(45.9570°N, 122.5700°W)
Time: 05:31:10
(UTC-07:00)

Transit 4A - Pass Details

Date: 27 July 2019
Orbit: 863 x 981 km, 66.8° (Epoch: 20 August)

Event Time Altitude Azimuth Distance (km) Brightness Sun altitude
Rises 05:32:56 0° 307° (NW) 3,691 10.8 -2.9°
Reaches altitude 10° 05:38:16 10° 343° (NNW) 2,736 10.6 -2.1°
Maximum altitude 05:39:43 11° 357° (N) 2,677 10.7 -1.9°
Drops below altitude 10° 05:41:10 10° 10° (N) 2,727 11.0 -1.7°
Sets 05:46:27 0° 47° (NE) 3,650 13.1 -0.9°
